User: anonymous   Login
Location: Unspecified
(0.0000°N, 0.0000°E)
Time: 11:45:49
(UTC+00:00)
Language:

Vanguard 2 Rocket - Orbit

View from above orbital plane
View from above orbital plane
View from above satellite
View from above satellite

Ground track
Ground track

The orbit data is extracted from the following two-line orbital elements,

1 00012U 59001B   22279.72767909  .00000463  00000-0  25949-3 0  9992
2 00012  32.9012 286.7695 1665008 180.0556 179.9983 11.44702144376376
Epoch (UTC): 06 October 2022 17:27:51
Eccentricity: 0.1665008
inclination: 32.9012°
perigee height: 553 km
apogee height: 3323 km
right ascension of ascending node: 286.7695°
argument of perigee: 180.0556°
revolutions per day: 11.44702144
mean anomaly at epoch: 179.9983°
orbit number at epoch: 37637

The dashed part of the orbit path shows where the satellite is in the earth's shadow,  

DLR